Location: Kimberly
(42.5380°N, 114.3640°W)
Time: 15:25:35
(UTC-07:00)

Envisat - Visible Passes

Search period start: 14 December 2018 00:00
Search period end: 24 December 2018 00:00
Orbit: 764 x 766 km, 98.2° (Epoch: 14 December)

Date Brightness Start Highest point End Pass type
(mag) Time Alt. Az. Time Alt. Az. Time Alt. Az.
14 Dec 3.1 18:56:34 10° SE 19:01:25 49° ENE 19:06:18 10° N visible
14 Dec 5.3 20:36:59 10° SW 20:40:42 20° W 20:44:26 10° NW visible
15 Dec 5.9 07:06:02 10° NE 07:09:05 16° E 07:12:10 10° SE visible
15 Dec 4.0 18:20:59 10° ESE 18:24:57 24° ENE 18:28:56 10° NNE visible
15 Dec 4.0 19:58:53 10° S 20:03:42 44° W 20:08:33 10° NNW visible
16 Dec 4.7 17:47:02 10° ENE 17:48:41 12° ENE 17:50:21 10° NE visible
16 Dec 2.8 19:21:49 10° SSE 19:26:54 85° ENE 19:32:00 10° NNW visible
16 Dec 6.0 21:05:04 10° WSW 21:06:33 11° W 21:08:03 10° WNW visible
17 Dec 3.4 18:45:37 10° SE 18:50:17 39° ENE 18:54:59 10° N visible
17 Dec 5.0 20:25:15 10° SSW 20:29:24 25° W 20:33:35 10° NW visible
18 Dec 6.1 06:55:40 10° ENE 06:57:46 12° E 06:59:51 10° ESE visible
18 Dec 4.2 18:10:21 10° ESE 18:13:52 19° ENE 18:17:25 10° NNE visible
18 Dec 3.6 19:47:30 10° S 19:52:28 56° W 19:57:28 10° NNW visible
19 Dec 2.8 19:10:42 10° SSE 19:15:43 68° ENE 19:20:47 10° N visible
19 Dec 5.7 20:52:28 10° WSW 20:55:13 15° W 20:57:58 10° WNW visible
20 Dec 5.7 07:19:41 10° NE 07:23:36 22° E 07:27:30 10° SE visible
20 Dec 3.6 18:34:44 10° SE 18:39:11 32° ENE 18:43:37 10° N visible
20 Dec 4.6 20:13:38 10° SSW 20:18:08 32° W 20:22:40 10° NNW visible
21 Dec 4.4 17:59:53 10° E 18:02:49 16° ENE 18:05:46 10° NNE visible
21 Dec 3.2 19:36:12 10° S 19:41:15 71° WSW 19:46:20 10° NNW visible
22 Dec 3.0 18:59:38 10° SSE 19:04:33 54° ENE 19:09:30 10° N visible
22 Dec 5.4 20:40:25 10° SW 20:43:54 18° W 20:47:24 10° NW visible
23 Dec 5.9 07:08:56 10° NE 07:12:18 18° E 07:15:38 10° SE visible
23 Dec 3.9 18:23:57 10° ESE 18:28:04 26° ENE 18:32:12 10° N visible
23 Dec 4.2 20:02:08 10° SSW 20:06:53 40° W 20:11:39 10° NNW visible
